Regional Weather Roundup
Issued by NWS

Home | Current Version | Previous Version | Graphics & Text | Print | Product List | Glossary On
Versions: 1 2 3 4 5 6 7 8 9 10 11 12 13 14 15 16 17 18 19 20 21 22 23 24 25 26 27 28 29 30 31 32 33 34 35 36 37 38 39 40 41 42 43 44 45 46 47 48 49 50
000
ASUS43 KTOP 261608
RWRKS

WEATHER ROUNDUP FOR KANSAS
NATIONAL WEATHER SERVICE GOODLAND KS
1000 AM CST MON JAN 26 2015

NOTE:  "FAIR" INDICATES FEW OR NO CLOUDS BELOW 12,000 FEET WITH NO
SIGNIFICANT WEATHER AND/OR OBSTRUCTIONS TO VISIBILITY.

KSZ001>006-013>018-027>032-041>047-261700-
NORTHWEST KANSAS

CITY           SKY/WX    TMP DP  RH WIND       PRES   REMARKS
GOODLAND       SUNNY     50  31  48 NW15      30.16R
HAYS           SUNNY     52  30  43 NW12      30.07R
HILL CITY      SUNNY     53  32  44 NW17G26   30.08R
RUSSELL        SUNNY     52  34  50 NW17      30.04R
$$

KSZ061>065-074>080-084>089-261700-
SOUTHWEST KANSAS

CITY           SKY/WX    TMP DP  RH WIND       PRES   REMARKS
DODGE CITY     SUNNY     52  30  43 NW16      30.12R
ELKHART          N/A    N/A N/A N/A MISG        N/A
GARDEN CITY    SUNNY     50  30  46 NW14      30.15R
GREAT BEND     SUNNY     50  32  50 NW20      30.07R
LIBERAL        SUNNY     50  34  53 NW15      30.20R
PRATT          SUNNY     50  32  50 NW16      30.08R
$$

KSZ066>073-081>083-090>101-261700-
SOUTHEAST KANSAS

CITY           SKY/WX    TMP DP  RH WIND       PRES   REMARKS
CHANUTE        SUNNY     40  32  73 SW14      30.05S WCI  32
COFFEYVILLE    SUNNY     40  32  73 S10       30.09R WCI  33
HUTCHINSON     SUNNY     47  32  56 NW12      30.03S
MEDICINE LODGE   N/A     49  34  56 W7        30.06S
NEWTON         SUNNY     43  28  56 W14       30.03S
PARSONS        SUNNY     40  32  73 S12       30.08R WCI  33
WICHITA INTL   MOSUNNY   47  31  53 W10       30.04S
WICHITA JABRA  SUNNY     44  30  57 W15       30.03S
WICHITA MCCONL SUNNY     44  30  59 SW9       30.04S
WINFIELD       SUNNY     42  30  62 SW12      30.06F
$$

KSZ007>012-019>026-033>040-048>060-102>105-261700-
NORTHEAST KANSAS

CITY           SKY/WX    TMP DP  RH WIND       PRES   REMARKS
CONCORDIA      SUNNY     45  33  63 W14       29.98R
EMPORIA        SUNNY     44  32  62 W13       29.98F
LAWRENCE       SUNNY     39  31  72 W13       29.98F WCI  31
MANHATTAN      SUNNY     43  31  62 W7        29.99F
MARYSVILLE     SUNNY     43  32  65 NW12      29.95S
OLATHE IND     SUNNY     39  32  76 SW14      29.97F WCI  31
OLATHE EXE     SUNNY     38  31  76 SW10G20   29.96F WCI  31
SALINA         SUNNY     48  35  60 NW8       30.03R
TOPEKA BILLARD SUNNY     41  31  67 SW10      29.96F
TOPEKA FORBES  SUNNY     41  31  67 SW13      29.96F
$$



USA.gov is the U.S. government's official web portal to all federal, state and local government web resources and services.